Regional Weather Roundup
Issued by NWS

Home | Current Version | Previous Version | Text Only | Print | Product List | Glossary On
Versions: 1 2 3 4 5 6 7 8 9 10 11 12 13 14 15 16 17 18 19 20 21 22 23 24 25 26 27 28 29 30 31 32 33 34 35 36 37 38 39 40 41 42 43 44 45 46 47 48 49 50
000
ASUS44 KMEG 250910
RWRTN
TENNESSEE HOURLY STATE WEATHER ROUNDUP
NATIONAL WEATHER SERVICE MEMPHIS TN
400 AM CDT TUE APR 25 2017

TNZ002-004-019-021-049-052-054-088>092-251000-
WEST TENNESSEE

CITY           SKY/WX    TMP DP  RH WIND       PRES   REMARKS
MEMPHIS INTL   CLEAR     56  54  93 S6        29.75S
NWS MEMPHIS      N/A     54 N/A N/A MISG        N/A
JACKSON        CLEAR     53  52  96 S3        29.76F
DYERSBURG      CLEAR     56  54  93 SW3       29.76S
SOMERVILLE     PTCLDY    54  52  94 CALM      29.75S
UNION CITY     CLEAR     54  54 100 CALM      29.74F FOG
BOLIVAR        MOCLDY    48  48 100 CALM      29.75F
PARIS          CLEAR     52  50  93 CALM      29.76S
HUNTINGDON     CLEAR     50  50 100 CALM      29.75S FOG
LEXINGTON      FOG       48  48 100 CALM      29.76F VSB 1/4
SAVANNAH       CLEAR     46  46 100 SW3       29.76F
$$

TNZ008-025-027-028-033-062-065-066-251000-
NORTH MIDDLE TENNESSEE

CITY           SKY/WX    TMP DP  RH WIND       PRES   REMARKS
NASHVILLE      CLEAR     54  53  97 CALM      29.78R
PORTLAND       PTCLDY    54  54 100 CALM      29.76S
CLARKSVILLE    FOG       52  50  93 CALM      29.76S VSB 3/4
SMYRNA         CLEAR     50  49  96 CALM      29.79R
COOKEVILLE     FOG       54  54 100 CALM      29.75S VSB 0
GALLATIN       CLEAR     50  50 100 CALM      29.80R
CROSSVILLE     PTCLDY    52  51  97 CALM      29.77R FOG
$$

TNZ061-075-076-078-094-096-097-251000-
SOUTH MIDDLE TENNESSEE

CITY           SKY/WX    TMP DP  RH WIND       PRES   REMARKS
FAYETTEVILLE   CLOUDY    50  50 100 CALM      29.78R
TULLAHOMA      CLOUDY    48  48 100 CALM      29.78S VSB 1/2
WINCHESTER     CLOUDY    54  54 100 W3        29.78S VSB 1/4
MCMINNVILLE    CLOUDY    54  54 100 CALM      29.77R VSB 0
COLUMBIA       CLEAR    N/A N/A N/A CALM      29.76S
SHELBYVILLE    CLOUDY    52  52 100 CALM      29.79R VSB 1/2
$$

TNZ017-018-042-046-047-251000-
NORTHEAST TENNESSEE

CITY           SKY/WX    TMP DP  RH WIND       PRES   REMARKS
TRI CITIES     CLOUDY    53  50  89 CALM      29.73S
ELIZABETHTON   CLOUDY    54  52  94 CALM      29.72F
$$

TNZ012-013-036-069-073-074-251000-
CENTRAL EAST TENNESSEE

CITY           SKY/WX    TMP DP  RH WIND       PRES   REMARKS
KNOXVILLE      PTCLDY    53  50  89 SE3       29.74R
OAK RIDGE      CLEAR     53  51  93 CALM      29.76R
DOWNTOWN KNOXV MOCLDY    54  54 100 CALM      29.75S
GATLINBURG     CLOUDY    54  52  94 CALM      29.75R
MORRISTOWN     CLOUDY    50  50 100 CALM      29.74S
JACKSBORO      MOCLDY    54  54 100 SW5       29.78S
$$

TNZ083-085-099-251000-
SOUTHEAST TENNESSEE

CITY           SKY/WX    TMP DP  RH WIND       PRES   REMARKS
CHATTANOOGA    CLEAR     57  55  93 CALM      29.75R
$$

SKY/WX REPORTED AS FAIR MEANS FEW OR NO CLOUDS BELOW
12 THOUSAND FEET.




USA.gov is the U.S. government's official web portal to all federal, state and local government web resources and services.